Location: Unspecified
(0.0000°N, 0.0000°E)
Time: 23:38:53
(UTC+00:00)

Envisat - Pass Details

Date: 14 February 2020
Orbit: 764 x 766 km, 98.1° (Epoch: 25 February)

Event Time Altitude Azimuth Distance (km) Brightness Sun altitude
Rises 05:41:27 0° 28° (NNE) 3,214 6.4 -8.0°
Reaches altitude 10° 05:43:55 10° 37° (NE) 2,291 5.8 -7.4°
Maximum altitude 05:48:30 36° 102° (ESE) 1,205 4.9 -6.3°
Drops below altitude 10° 05:53:06 10° 168° (SSE) 2,300 5.8 -5.1°
Sets 05:55:34 0° 176° (S) 3,229 6.5 -4.5°
